| time (UTC) | temp C | wind direction | speed KPH | gust KPH | rain 1hr cm | rain 24hr cm | rain mn cm | humidity % | barometer mb |
| 20260508080005 | 2 | 295 | 0.0 | 0.0 | 0.00 | 0.48 | 0.00 | 84 | 1009.8 |
| 20260508074503 | 3 | 295 | 0.0 | 0.0 | 0.00 | 0.48 | 0.00 | 82 | 1009.4 |
| 20260508073100 | 3 | 295 | 0.0 | 0.0 | 0.00 | 0.53 | 0.00 | 81 | 1009.2 |
| 20260508071558 | 3 | 295 | 0.0 | 0.0 | 0.00 | 0.53 | 0.00 | 81 | 1008.8 |
| 20260508070056 | 3 | 295 | 0.0 | 0.0 | 0.00 | 0.53 | 0.00 | 80 | 1008.7 |
| 20260508064555 | 3 | 295 | 0.0 | 0.0 | 0.00 | 0.53 | 0.00 | 77 | 1008.6 |
| 20260508063103 | 5 | 295 | 0.0 | 8.0 | 0.00 | 0.53 | 0.00 | 78 | 1008.4 |
| 20260508061554 | 3 | 266 | 0.0 | 0.0 | 0.00 | 0.53 | 0.00 | 78 | 1008.3 |
| 20260508060052 | 3 | 266 | 0.0 | 0.0 | 0.00 | 0.53 | 0.00 | 74 | 1008.1 |
| 20260508054645 | 3 | 266 | 0.0 | 0.0 | 0.00 | 0.53 | 0.00 | 75 | 1008.5 |
| 20260508053044 | 3 | 266 | 0.0 | 0.0 | 0.00 | 0.53 | 0.00 | 75 | 1008.5 |
| 20260508051542 | 4 | 266 | 0.0 | 0.0 | 0.00 | 0.53 | 0.00 | 76 | 1008.6 |
| 20260508050039 | 4 | 266 | 0.0 | 0.0 | 0.00 | 0.53 | 0.00 | 73 | 1008.8 |
| 20260508044537 | 5 | 266 | 0.0 | 0.0 | 0.00 | 0.53 | 0.00 | 70 | 1008.9 |
| 20260508043009 | 5 | 266 | 0.0 | 0.0 | 0.00 | 0.61 | 0.00 | 70 | 1009.0 |
| 20260508041504 | 5 | 266 | 0.0 | 0.0 | 0.00 | 0.61 | 0.00 | 69 | 1009.0 |
| 20260508040031 | 5 | 266 | 0.0 | 0.0 | 0.00 | 0.61 | 0.00 | 68 | 1009.0 |
| 20260508034529 | 6 | 266 | 0.0 | 0.0 | 0.00 | 0.61 | 0.00 | 67 | 1009.0 |
| 20260508033057 | 6 | 266 | 0.0 | 0.0 | 0.00 | 0.71 | 0.00 | 63 | 1008.9 |
| 20260508031556 | 7 | 266 | 0.0 | 0.0 | 0.00 | 0.71 | 0.00 | 62 | 1008.9 |
| 20260508030037 | 9 | 266 | 0.0 | 0.0 | 0.00 | 0.71 | 0.00 | 55 | 1008.9 |
| 20260508024545 | 10 | 266 | 0.0 | 0.0 | 0.00 | 0.71 | 0.00 | 51 | 1009.0 |
| 20260508023033 | 10 | 266 | 0.0 | 0.0 | 0.00 | 0.71 | 0.00 | 52 | 1008.9 |
| 20260508021633 | 11 | 263 | 0.0 | 6.4 | 0.00 | 0.71 | 0.00 | 47 | 1009.0 |
| 20260508020031 | 11 | 274 | 3.2 | 11.3 | 0.00 | 0.71 | 0.00 | 46 | 1009.0 |
| 20260508014537 | 11 | 255 | 0.0 | 6.4 | 0.00 | 0.71 | 0.00 | 51 | 1009.0 |
| 20260508013028 | 11 | 258 | 0.0 | 0.0 | 0.00 | 0.71 | 0.00 | 45 | 1008.9 |
| 20260508011625 | 11 | 276 | 0.0 | 6.4 | 0.00 | 0.71 | 0.00 | 46 | 1008.5 |
| 20260508010033 | 12 | 283 | 1.6 | 12.9 | 0.00 | 0.71 | 0.00 | 48 | 1008.3 |
| 20260508004523 | 12 | 272 | 0.0 | 8.0 | 0.00 | 0.71 | 0.00 | 45 | 1008.0 |
| 20260508003021 | 12 | 276 | 0.0 | 17.7 | 0.00 | 0.71 | 0.00 | 47 | 1007.8 |
| 20260508001620 | 12 | 320 | 12.9 | 25.7 | 0.00 | 0.71 | 0.00 | 45 | 1007.6 |
| 20260508000022 | 12 | 288 | 16.1 | 24.1 | 0.00 | 0.71 | 0.00 | 42 | 1007.6 |
| 20260507234519 | 13 | 297 | 19.3 | 27.4 | 0.00 | 0.71 | 0.00 | 44 | 1007.5 |
| 20260507231513 | 13 | 262 | 16.1 | 30.6 | 0.00 | 0.79 | 0.00 | 46 | 1007.2 |
| 20260507230009 | 13 | 272 | 17.7 | 27.4 | 0.00 | 0.79 | 0.00 | 44 | 1007.2 |
| 20260507224508 | 13 | 308 | 14.5 | 30.6 | 0.00 | 0.79 | 0.00 | 43 | 1007.0 |
| 20260507223006 | 13 | 303 | 20.9 | 30.6 | 0.00 | 0.84 | 0.00 | 43 | 1006.8 |
| 20260507221510 | 13 | 307 | 20.9 | 33.8 | 0.00 | 0.84 | 0.00 | 45 | 1006.9 |
| 20260507220059 | 14 | 290 | 12.9 | 27.4 | 0.00 | 0.84 | 0.00 | 46 | 1006.9 |
| 20260507214605 | 14 | 311 | 17.7 | 27.4 | 0.00 | 0.84 | 0.00 | 47 | 1006.7 |
| 20260507213057 | 14 | 303 | 11.3 | 27.4 | 0.00 | 0.97 | 0.84 | 42 | 1006.6 |
| 20260507211559 | 14 | 259 | 19.3 | 30.6 | 0.00 | 0.97 | 0.84 | 44 | 1006.4 |
| 20260507210059 | 14 | 317 | 16.1 | 27.4 | 0.00 | 0.97 | 0.84 | 45 | 1006.3 |
| 20260507204551 | 14 | 307 | 25.7 | 33.8 | 0.00 | 0.97 | 0.84 | 45 | 1006.1 |
| 20260507203104 | 14 | 285 | 11.3 | 25.7 | 0.00 | 1.12 | 0.84 | 46 | 1006.3 |
| 20260507201558 | 14 | 274 | 17.7 | 27.4 | 0.00 | 1.12 | 0.84 | 43 | 1006.3 |
| 20260507200103 | 14 | 301 | 19.3 | 27.4 | 0.00 | 1.12 | 0.84 | 44 | 1006.2 |
| 20260507194547 | 15 | 297 | 17.7 | 30.6 | 0.00 | 1.12 | 0.84 | 41 | 1006.3 |
| 20260507193048 | 14 | 328 | 16.1 | 33.8 | 0.00 | 1.24 | 0.84 | 43 | 1006.4 |
| 20260507191544 | 13 | 326 | 20.9 | 32.2 | 0.00 | 1.24 | 0.84 | 45 | 1006.7 |
| 20260507190039 | 14 | 286 | 12.9 | 30.6 | 0.00 | 1.24 | 0.84 | 39 | 1006.8 |
| 20260507184541 | 13 | 292 | 19.3 | 30.6 | 0.00 | 1.24 | 0.84 | 46 | 1006.9 |
| 20260507183037 | 13 | 252 | 8.0 | 24.1 | 0.00 | 1.32 | 0.84 | 47 | 1007.1 |
| 20260507181537 | 13 | 319 | 11.3 | 25.7 | 0.00 | 1.32 | 0.84 | 43 | 1007.2 |
| 20260507180038 | 13 | 323 | 20.9 | 35.4 | 0.00 | 1.32 | 0.84 | 46 | 1007.2 |
| 20260507174536 | 13 | 312 | 16.1 | 27.4 | 0.00 | 1.32 | 0.84 | 42 | 1007.5 |
| 20260507173033 | 13 | 278 | 17.7 | 27.4 | 0.00 | 1.32 | 0.84 | 44 | 1007.5 |
| 20260507171530 | 13 | 303 | 22.5 | 30.6 | 0.00 | 1.32 | 0.84 | 44 | 1007.5 |
| 20260507170105 | 13 | 328 | 19.3 | 30.6 | 0.00 | 1.32 | 0.84 | 44 | 1007.5 |
| 20260507164604 | 12 | 308 | 22.5 | 32.2 | 0.00 | 1.32 | 0.84 | 45 | 1007.7 |
| 20260507163055 | 12 | 288 | 14.5 | 30.6 | 0.00 | 1.32 | 0.84 | 48 | 1008.0 |
| 20260507161653 | 12 | 247 | 8.0 | 22.5 | 0.00 | 1.32 | 0.84 | 46 | 1008.0 |
| 20260507160055 | 12 | 274 | 11.3 | 27.4 | 0.00 | 1.32 | 0.84 | 48 | 1008.2 |
| 20260507154555 | 12 | 268 | 11.3 | 25.7 | 0.00 | 1.32 | 0.84 | 49 | 1008.2 |
| 20260507153048 | 12 | 290 | 12.9 | 24.1 | 0.00 | 1.32 | 0.84 | 53 | 1008.3 |
| 20260507151546 | 11 | 339 | 12.9 | 22.5 | 0.00 | 1.32 | 0.84 | 56 | 1008.4 |
| 20260507150046 | 11 | 297 | 9.7 | 22.5 | 0.00 | 1.32 | 0.84 | 58 | 1008.4 |
| 20260507144545 | 11 | 315 | 12.9 | 22.5 | 0.00 | 1.32 | 0.84 | 63 | 1008.5 |
| 20260507143039 | 11 | 284 | 12.9 | 22.5 | 0.00 | 1.32 | 0.84 | 60 | 1008.5 |
| 20260507141542 | 11 | 296 | 12.9 | 17.7 | 0.00 | 1.32 | 0.84 | 59 | 1008.7 |
| 20260507140038 | 11 | 288 | 11.3 | 20.9 | 0.00 | 1.32 | 0.84 | 67 | 1008.6 |
| 20260507134538 | 11 | 291 | 11.3 | 22.5 | 0.00 | 1.32 | 0.84 | 70 | 1008.6 |
| 20260507133052 | 10 | 293 | 8.0 | 20.9 | 0.00 | 1.32 | 0.84 | 73 | 1008.6 |
| 20260507133043 | 10 | 289 | 8.0 | 20.9 | 0.00 | 1.32 | 0.84 | 73 | 1008.6 |
| 20260507131534 | 10 | 302 | 17.7 | 29.0 | 0.00 | 1.32 | 0.84 | 74 | 1008.7 |
| 20260507130025 | 10 | 265 | 16.1 | 27.4 | 0.00 | 1.32 | 0.84 | 78 | 1008.7 |
| 20260507124529 | 10 | 289 | 19.3 | 25.7 | 0.00 | 1.32 | 0.84 | 81 | 1008.5 |
| 20260507123021 | 10 | 311 | 12.9 | 27.4 | 0.00 | 1.32 | 0.84 | 84 | 1008.4 |
| 20260507121603 | 9 | 268 | 8.0 | 16.1 | 0.00 | 1.32 | 0.84 | 86 | 1008.5 |
| 20260507120056 | 9 | 282 | 6.4 | 16.1 | 0.00 | 1.32 | 0.84 | 87 | 1008.5 |
| 20260507114617 | 9 | 283 | 4.8 | 12.9 | 0.00 | 1.32 | 0.84 | 88 | 1008.2 |
| 20260507113041 | 9 | 305 | 6.4 | 14.5 | 0.00 | 1.32 | 0.84 | 88 | 1008.2 |
| 20260507111540 | 9 | 297 | 4.8 | 12.9 | 0.00 | 1.32 | 0.84 | 87 | 1008.3 |
| 20260507110038 | 9 | 311 | 6.4 | 14.5 | 0.00 | 1.32 | 0.84 | 88 | 1008.2 |
| 20260507104535 | 9 | 306 | 4.8 | 16.1 | 0.00 | 1.32 | 0.84 | 88 | 1008.1 |
| 20260507103033 | 10 | 305 | 4.8 | 16.1 | 0.03 | 1.32 | 0.84 | 89 | 1007.6 |
| 20260507101532 | 9 | 313 | 4.8 | 9.7 | 0.03 | 1.32 | 0.84 | 89 | 1007.7 |
| 20260507094528 | 9 | 303 | 4.8 | 9.7 | 0.15 | 1.32 | 0.84 | 89 | 1007.5 |
| 20260507093027 | 9 | 303 | 4.8 | 16.1 | 0.23 | 1.30 | 0.81 | 90 | 1007.7 |
| 20260507091530 | 10 | 330 | 4.8 | 16.1 | 0.36 | 1.30 | 0.81 | 90 | 1007.3 |
| 20260507090029 | 10 | 317 | 9.7 | 16.1 | 0.30 | 1.19 | 0.71 | 89 | 1007.4 |
| 20260507084519 | 10 | 310 | 9.7 | 16.1 | 0.33 | 1.17 | 0.69 | 89 | 1007.1 |
| 20260507083016 | 10 | 317 | 11.3 | 17.7 | 0.25 | 1.07 | 0.58 | 88 | 1007.6 |
| 20260507081513 | 10 | 288 | 8.0 | 16.1 | 0.15 | 0.94 | 0.46 | 88 | 1007.5 |